Regional Weather Roundup
Issued by NWS Charleston, SC

Current Version | Previous Version | Text Only | Print | Product List | Glossary Off
Versions: 1 2 3 4 5 6 7 8 9 10 11 12 13 14 15 16 17 18 19 20 21 22 23 24 25 26 27 28 29 30 31 32 33 34 35 36 37 38 39 40 41 42 43 44 45 46 47 48 49 50
000 ASUS42 KCHS 031927 RWRCHS REGIONAL WEATHER ROUNDUP NATIONAL WEATHER SERVICE CHARLESTON SC 300 PM EDT FRI JUL 03 2015 NOTE: "FAIR" INDICATES FEW OR NO CLOUDS BELOW 12,000 FEET WITH NO SIGNIFICANT WEATHER AND/OR OBSTRUCTIONS TO VISIBILITY. NOT ALL STATIONS ARE QUALITY CONTROLLED BY THE NATIONAL WEATHER SERVICE. USE DATA WITH CAUTION...ESPECIALLY DEWPOINT OBSERVATIONS. SCZ027-030-031-034>040-042>050-032000- ...SOUTHEAST SOUTH CAROLINA... CITY SKY/WX TMP DP RH WIND PRES REMARKS N CHARLESTON TSTM 72 70 94 W9 30.01R FOG WATERFRONT PAR N/A 85 77 76 SW9 29.96F HX 95 MOUNT PLEASANT HVY RAIN 75 72 88 W12G46 30.03R VSB<1/4 JOHNS ISLAND TSTM 73 72 94 W16G25 30.05R VSB 1/2 PINOPOLIS NOT AVBL MONCKS CORNER TSTM 73 70 88 SW12 30.00R SUMMERVILLE CLOUDY 72 72 100 SW7 30.01S BEAUFORT MCAS LGT RAIN 74 70 87 W12 30.02R BEAUFORT ARPT LGT RAIN 79 70 73 NW15G35 30.02R HILTON HEAD IS MOSUNNY 91 72 52 W14G21 30.01F HX 98 WALTERBORO MOCLDY 72 68 88 W9 30.03S ALLENDALE FAIR 73 70 88 SW5 30.01R ...SOUTHERN MIDLANDS AND PEE DEE... CITY SKY/WX TMP DP RH WIND PRES REMARKS GEORGETOWN NOT AVBL KINGSTREE NOT AVBL ORANGEBURG CLOUDY 74 69 85 W9 29.99S BARNWELL FAIR 79 72 78 W8 30.01S AIKEN NOT AVBL MANNING MOCLDY 79 70 73 W9 29.96R COLUMBIA CLOUDY 81 68 64 W17 29.96F SUMTER CLOUDY 83 70 66 W12 29.93S FLORENCE PTSUNNY 85 72 65 SW9 29.93F HX 91 MYRTLE BEACH MOSUNNY 82 75 78 S17 29.96F N MYRTLE BEACH PTSUNNY 85 74 69 S18 29.95F HX 92 $$ GAZ063-065-086>088-099>101-113>116-118-119-134>141-150-032000- ...SOUTHEAST GEORGIA... CITY SKY/WX TMP DP RH WIND PRES REMARKS SAVANNAH ARPT PTSUNNY 93 68 43 W16G24 30.00F HX 97 HUNTER AAF MOSUNNY 93 72 49 W17 29.98F HX 101 FORT STEWART MOSUNNY 92 69 46 SW13 30.00S HX 97 STATESBORO NOT AVBL SYLVANIA MOCLDY 82 73 75 NW15G24 30.04S CLAXTON FAIR 91 70 49 SW10G17 30.01F HX 97 ...CSRA...CENTRAL AND FAR SOUTHEAST GEORGIA... CITY SKY/WX TMP DP RH WIND PRES REMARKS THOMSON CLOUDY 76 73 92 SW5 30.03F AUGUSTA-BUSH CLOUDY 75 71 87 VRB7 29.99F AUGUSTA-DANIEL CLOUDY 74 70 87 VRB6 30.01F SWAINSBORO FAIR 79 77 94 NW8 30.04F VIDALIA MOSUNNY 91 66 43 SW16 30.02F HX 94 EASTMAN FAIR 92 70 47 SW7 30.04F HX 97 HAZLEHURST FAIR 91 69 47 W12 30.03S HX 95 ALMA SUNNY 90 68 48 W13 30.04F HX 94 WAYCROSS MOSUNNY 94 74 51 W15 30.04F HX 104 JESUP FAIR 95 70 43 W12G17 30.03S HX 101 BAXLEY FAIR 91 68 46 W12G21 30.03S HX 95 BRUNSWICK SUNNY 93 70 46 W10G20 30.03F HX 99 SAINT SIMONS SUNNY 91 68 46 W10G18 30.04F HX 95 $$ SCZ027-028-034-036>038-045-046-048>050-GAZ119-141-032000- ...LAKE AND SUPPLEMENTAL COASTAL OBSERVATIONS... STATION/POSITION TIME TEMP WIND PRES WAVE SWELL AIR SEA DIR/SP/G HT/PER HT/PER/DIR (UTC) (F) (DEG/KT/KT) (MB) (FT/S) (FT/S/D) UPR LAKE MARION NOT AVBL WINYAH BAY 1800 85 200/ 9 1014.0 LAKE MURRAY 1800 75 250/ 12/ 18 1014.2F ACE BASIN NERRS 1800 88 150/ 3 1016.0S FORT PULASKI 1900 90 84 270/ 11/ 15 1016.4F SAPELO ISLAND 1900 91 240/ 12 1017.0S $$ ANZ835-935-AMZ111-154-330-350-352-354-370-450-454-472-032000- ...C-MAN AND BUOY OBSERVATIONS... STATION/POSITION TIME TEMP WIND PRES WAVE SWELL AIR SEA DIR/SP/G HT/PER HT/PER/DIR (UTC) (F) (DEG/KT/KT) (MB) (FT/S) (FT/S/D) BUOY 41004 1850 81 82 220/ 17/ 21 1015.4F 5/ 5 2/ 8 BUOY 41008 1850 80 80 200/ 10/ 12 1017.4F 2/ 9 2/130/ 9 FOLLY BEACH CMAN 1900 82 210/ 21/ 24 1015.3F CAPERS NEARSHORE 1808 82 230/ 17/ 21 1016.2F FRIPP NEARSHORE 1800 83 210/ 17/ 19 1016.0F STATION/POSITION TIME TEMP WIND PRES WAVE SWELL AIR SEA DIR/SP/G HT/PER HT/PER/DIR (UTC) (F) (DEG/KT/KT) (MB) (FT/S) (FT/S/D) 5E ST. MARYS GA 1821 79 N/A 2/10 FRYING PAN BUOY 1850 81 79 220/ 17/ 21 1015.6F 5/ 6 BUOY 41025 1850 79 81 240/ 12/ 14 1015.0F 4/ 7 3/180/ 7 CAPE LOOKOUT NC 1900 81 210/ 12/ 15 1014.4F BUOY 41002 1850 80 80 250/ 12/ 14 1019.0F 6/ 7 5/230/ 7 BUOY 41010 1820 81 85 120/ 8/ 10 1020.1F ST AUGUSTINE FL 1900 79 76 140/ 11/ 12 1019.1F $$

USA.gov is the U.S. government's official web portal to all federal, state and local government web resources and services.